Location: Chuathbaluk
(61.5726°N, 159.2454°W)
Time: 00:34:32
(UTC+00:00)

Explorer 7 - Pass Details

Date: 12 December 2021
Orbit: 483 x 674 km, 50.3° (Epoch: 21 January)

Event Time Altitude Azimuth Distance (km) Brightness Sun altitude
Exits shadow 15:26:33 17° 158° (SSE) 1,485 9.2 -27.8°
Drops below altitude 10° 15:28:28 10° 131° (SE) 1,848 10.0 -27.6°
Sets 15:31:12 0° 113° (ESE) 2,703 11.4 -27.3°
